Weather History for Lawrence, MA

Change the Weather History Date:

Saturday, January 5, 2013

  Actual Average Record
Temperature  
Mean Temperature 31 °F -  
Max Temperature 41 °F 35 °F 62 °F (1993)
Min Temperature 21 °F 17 °F -7 °F (1935)
Degree Days  
Heating Degree Days 34    
Moisture  
Dew Point 17 °F    
Average Humidity 53    
Maximum Humidity 75    
Minimum Humidity 35    
Precipitation  
Precipitation 0.00 in - - ()
Sea Level Pressure  
Sea Level Pressure 30.10 in    
Wind  
Wind Speed 10 mph (West)    
Max Wind Speed 17 mph    
Max Gust Speed 26 mph    
Visibility 10 miles    
Events      
Averages and records for this station are not official NWS values.
T = Trace of Precipitation, MM = Missing Value Source: NWS Daily Summary

Daily Weather History Graph

Daily Weather History Graph

Search for Another Location

Airport:

Trip Planner

Search our weather history database for the weather conditions in past years. The results will help you decide how hot, cold, wet, or windy it might be!

Date:

Astronomy

Jan. 05, 2013 Rise Set
Actual Time 7:14 AM EST 4:25 PM EST
Civil Twilight 6:43 AM EST 4:57 PM EST
Nautical Twilight 6:07 AM EST 5:32 PM EST
Astronomical Twilight 5:33 AM EST 6:06 PM EST
Moon 12:13 AM EST (1/5) 11:17 AM EST (1/5)
Length of Visible Light 10h 14m
Length of Day
9h 10m
Last Quarter, 44% of the Moon is Illuminated
Jan 5
Last Quarter
Jan 11
New
Jan 18
First Quarter
Jan 26
Full
Feb 3
Last Quarter

Hourly Weather History & Observations

Time (EST) Temp. Windchill Dew Point Humidity Pressure Visibility Wind Dir Wind Speed Gust Speed Precip Events Conditions
12:54 AM 35.1 °F 26.4 °F 18.0 °F 50% 29.83 in 10.0 mi WSW 12.7 mph - N/A   Partly Cloudy
1:54 AM 35.1 °F 26.4 °F 19.0 °F 52% 29.85 in 10.0 mi WSW 12.7 mph - N/A   Scattered Clouds
2:54 AM 36.0 °F 27.1 °F 19.9 °F 52% 29.87 in 10.0 mi WSW 13.8 mph - N/A   Overcast
3:54 AM 35.1 °F 25.9 °F 19.9 °F 54% 29.89 in 10.0 mi WSW 13.8 mph 18.4 mph N/A   Clear
4:54 AM 35.1 °F 26.4 °F 21.0 °F 57% 29.90 in 10.0 mi WSW 12.7 mph - N/A   Clear
5:54 AM 34.0 °F 27.2 °F 21.0 °F 59% 29.95 in 10.0 mi SW 8.1 mph - N/A   Clear
6:54 AM 32.0 °F 25.6 °F 19.9 °F 61% 29.99 in 10.0 mi SW 6.9 mph - N/A   Clear
7:54 AM 33.1 °F 25.5 °F 19.9 °F 59% 30.02 in 10.0 mi WSW 9.2 mph - N/A   Clear
8:54 AM 36.0 °F 29.0 °F 21.0 °F 55% 30.07 in 10.0 mi WSW 9.2 mph - N/A   Clear
9:34 AM 37.4 °F 31.4 °F 21.2 °F 52% 30.09 in 10.0 mi WNW 8.1 mph - N/A   Mostly Cloudy
9:54 AM 37.9 °F 29.2 °F 19.9 °F 48% 30.12 in 10.0 mi WNW 15.0 mph 23.0 mph N/A   Overcast
10:54 AM 39.0 °F 29.9 °F 18.0 °F 43% 30.13 in 10.0 mi WNW 17.3 mph 26.5 mph N/A   Scattered Clouds
11:54 AM 39.2 °F 32.5 °F 17.6 °F 42% 30.14 in 10.0 mi WNW 10.4 mph 19.6 mph N/A   Clear
12:54 PM 39.9 °F 32.9 °F 16.0 °F 38% 30.15 in 10.0 mi WNW 11.5 mph 20.7 mph N/A   Clear
1:54 PM 41.0 °F 33.9 °F 15.1 °F 35% 30.16 in 10.0 mi NNW 12.7 mph 20.7 mph N/A   Clear
2:54 PM 39.0 °F 32.3 °F 15.1 °F 38% 30.16 in 10.0 mi NW 10.4 mph - N/A   Clear
3:54 PM 37.9 °F 32.7 °F 12.9 °F 36% 30.19 in 10.0 mi NNW 6.9 mph - N/A   Clear
4:54 PM 36.0 °F 31.1 °F 12.9 °F 39% 30.23 in 10.0 mi NW 5.8 mph - N/A   Clear
5:54 PM 30.9 °F - 14.0 °F 50% 30.24 in 10.0 mi Calm Calm - N/A   Clear
6:54 PM 28.9 °F - 14.0 °F 54% 30.26 in 10.0 mi Calm Calm - N/A   Clear
7:54 PM 25.0 °F 20.7 °F 17.1 °F 72% 30.27 in 10.0 mi East 3.5 mph - N/A   Clear
8:54 PM 24.1 °F - 17.1 °F 75% 30.27 in 10.0 mi Calm Calm - N/A   Clear
9:54 PM 25.0 °F - 15.1 °F 66% 30.26 in 10.0 mi Calm Calm - N/A   Clear
10:54 PM 21.9 °F - 14.0 °F 72% 30.27 in 10.0 mi Calm Calm - N/A   Clear
11:54 PM 24.1 °F 19.7 °F 17.1 °F 75% 30.24 in 10.0 mi East 3.5 mph - N/A   Clear